Погода в Мариуполе

Поиск расширенной информации на нашем сайте:

Полезная информация:

Новости сайта



02.01.2020
Опубликован Долгосрочный прогноз погоды по городам России и ближнего зарубежья на январь 2020 года.
Карты: Прогноз на январь и февраль 2020 года, Сравнение прогнозируемой аномалии приземной температуры воздуха на январь 2020 года по разным моделям.




Погода в Мариуполе - сегодня

Время (UTC), дата Ветер
(°,м/с) 
Видим.   Явления Облачность Т
(°С)
Тd
(°С)
f(%) Тe
(°С)
Pmin
(гПа)
dP
(гПа)
Po
(мм)
O2
(г/м3)
Тmin Tmax R s Состояние
почвы
09 16.01.21 280 (З) 20000 м  {ливн. осадки}  3/0 верхняя 
[Cs]
-7.4 -14.4 57 -12  1017.2  1.9  756  314           
12 16.01.21 300 (СЗ) 20000 м  {ливн. осадки}  4/0 верхняя 
[Cs]
-5.7 -15.3 47 -9  1016.5  -0.7  756  312      0.0     
15 16.01.21 280 (З) 20000 м    6/0 верхняя 
[Cc]
-7 -17 45 -7  1016.5  756  314           
18 16.01.21 тихо ()   20000 м    4/0 верхняя 
[Cs]
-7.6 -15.3 54 -8  1016.6  0.1  756  315    -5.5  0.0     
21 16.01.21 090 (В) 20000 м    6/0 средняя, верхняя 
[Ac trans|Cs]
-5.8 -12 62 -8  1015.5  -1.1  755  312        598   
00 17.01.21 050 (СВ) 20000 м    8/0 средняя, верхняя 
[Ac trans|Cs]
-6.6 -12.7 62 -10  1014  -1.5  754  312           
03 17.01.21 070 (В) 20000 м    10/0 средняя 
[Ac und]
-7.2 -11.5 71 -11  1012.5  -1.5  753  313           
06 17.01.21 060 (СВ) 20000 м    10/0 средняя 
[Ac und]
-6.9 -14.2 56 -12  1012.2  -0.3  752  312  -7.6      равномерный
сухой снег
100% 
09 17.01.21 050 (СВ) 20000 м    10/0 средняя 
[As op]
-6.8 -14.7 53 -10  1011  -1.2  752  312           
12 17.01.21 030 (СВ) 2000 м  снег  10/9 500 м средняя 
[Frnb|As op]
-7.3 -9.4 85 -12  1009.8  -1.2  751  312           
15 17.01.21 030 (СВ) 1000 м  снег  10/9 300 м средняя 
[Frnb|As op]
-7.2 -7.7 96 -11  1009.6  -0.2  750  311           
18 17.01.21 030 (СВ) 1000 м  снег  10/9 300 м средняя 
[Frnb|As op]
-7.3 -8.2 93 -12  1009.6  750  312    -6.5     
21 17.01.21 020 (С) 4000 м  слаб. снег  10/9 400 м средняя 
[Frnb|As op]
-7.1 -9.2 85 -11  1009.9  0.3  751  311           
00 18.01.21 340 (С) 4000 м  слаб. снег  10/9 540 м средняя 
[Frnb|As op]
-9.4 -10.6 91 -14  1010.5  0.6  751  314           
03 18.01.21 330 (СЗ) 10 км  {снег}  3/0 верхняя 
[Cs]
-12.2 -14.2 85 -18    1.4             
06 18.01.21 320 (СЗ) 10 км  {снег}  6/0 средняя, верхняя 
[Ac trans|Cs]
-14 -16.3 83 -19  1014.3  2.2  754  322  -14.4       
09 18.01.21 340 (С) 10 км    9/0 верхняя 
[Cs]
-10.6 -15 70 -15  1014.6  0.4  754  317        707   
12 18.01.21 280 (З) 10 км    8/0 верхняя 
[Cs]
-9.8 -14.5 69 -14  1015.5  0.9  755  317        995   
15 18.01.21 320 (СЗ) 10 км    9/0 верхняя 
[Cs]
-11.9 -15.6 74 -18  1016.6  756  320           
18 18.01.21 330 (СЗ) 10 км    4/0 верхняя 
[Cs]
-13.7 -16.4 80 -14  1018.2  1.5  757  322    -9.5       
21 18.01.21 310 (СЗ) 4000 м  дымка  3/0 верхняя 
[Cs]
-14.5 -16 88 -17  1019.2  757  324           
00 19.01.21 300 (СЗ) 4000 м  слаб. снег  10/8 660 м средняя 
[Frnb|Ac As]
-14.6 -16 89 -19  1019.8  0.6  758  324           
03 19.01.21 280 (З) 10 км  {снег}  ясно 
-16.3 -18.5 83 -21  1019.9  758  326           
06 19.01.21 300 (СЗ) 10 км  {снег}  8/0 верхняя 
[Cs]
-18.4 -19.9 88 -24  1020.1  0.1  758  329  -18.4    0.0     
09 19.01.21 280 (З) 10 км    6/0 верхняя 
[Cs]
-15 -18.4 75 -19  1020.9  759  325           
Время (UTC), дата Ветер
(°,м/с) 
Видим.   Явления Облачность Т
(°С)
Тd
(°С)
f(%) Тe
(°С)
Pmin
(гПа)
dP
(гПа)
Po
(мм)
O2
(г/м3)
Тmin Tmax R s Состояние
почвы

Для получения пояснительной информации подведите курсор к названию столбца.

ПОГОДА в Мариуполе - архив

Всё, что Вы хотите узнать о погоде в Мариуполе - удобно и подробно!

Выберите нужную дату (начиная с 1 января 2019* года) и нажмите кнопку "Найти".
Будут отображены архивные сводки погоды по пункту Мариуполь, начиная с указанной даты.


Отображать данные в формате CSV (для использования в таблицах Excel)


Внимание! Наш архив погоды предназначен исключительно для личного некоммерческого использования в познавательных целях. Если Вам необходимы официальные справки о состоянии погоды (для производственных, юридических, коммерческих и т.п. целей), обращайтесь в органы Росгидромета.

*Примечание: данная дата относится к архиву по метеостанциям СССР (Россия, СНГ, Балтия).
Архив по метеостанциям Зарубежной Европы и Азии (кроме Китая) хранится 10 дней, по другим регионам земного шара (Китай, Африка, Америка, Австралия, Океания) - 1 день.

Мариуполь - район местоположения метеостанции


Название, широта, долгота, высота метеостанции:
Мариуполь (город) 47°ш. 37.5°д. 70 м над ур. моря [Украина]

Дополнительная информация

В oтличие oт бoльшинства пoгoдных сайтoв мы публикуем пoдрoбную метеoинфoрмацию в детальнoм прoфессиoнальнoм фoрмате.

Характеристики температуры и влажнoсти вoздуха измеряются на высoте 2 м в тени вдали oт зданий и деревьев.
Скoрoсть ветра измеряется на высoте 10 м (на урoвне рoста челoвека скoрoсть ветра ниже в 1.5-2 раза). Если метеoстанция нахoдится в гoрoде или в лесу, тo скoрoсть ветра занижена на 2-4 м/с пo сравнению с oткрытым местoм. Скoрoсть ветра над акватoриями крупных рек и oзёр, а также на вершинах хoлмoв на 2-5 м/с выше, чем в oбычных услoвиях.
Атмoсфернoе давление в разных тoчках местнoсти мoжет значительнo oтличаться oт давления на метеoстанции, в зависимoсти oт услoвий рельефа (при пoдъёме на 10 м давление пoнижается примернo на 1 мм рт.ст.).